Location: Sobotiste
(48.7170°N, 17.4000°E)
Time: 07:29:55
(UTC+02:00)

YUBILEINY - Pass Details

Date: 20 March 2026
Orbit: 1477 x 1509 km, 82.5° (Epoch: 13 April)

Event Time Altitude Azimuth Distance (km) Brightness Sun altitude
Rises 03:40:07 0° 346° (NNW) 4,619 ? -22.1°
Reaches altitude 10° 03:43:09 10° 341° (NNW) 3,632 ? -21.6°
Maximum altitude 03:51:11 44° 274° (W) 1,952 ? -20.4°
Enters shadow 03:56:19 22° 216° (SW) 2,759 ? -19.7°
